CW8198 Weather Reports


Display with metric or nautical units.
time (UTC)temp
F
wind
direction
speed
MPH
gust
MPH
rain 1hr
in
rain 24hr
in
rain mn
in
humidity
%
barometer
mb
20260506223800 64 281 5.0 10.0 0.00 0.00 0.00 28 1016.0
20260506223300 64 321 2.0 10.0 0.00 0.00 0.00 32 1016.2
20260506222801 64 340 3.0 11.0 0.00 0.00 0.00 30 1016.2
20260506222259 64 244 6.0 11.0 0.00 0.00 0.00 29 1016.2
20260506221759 64 331 3.0 8.0 0.00 0.00 0.00 29 1016.3
20260506221258 64 279 3.0 10.0 0.00 0.00 0.00 29 1016.5
20260506220759 64 300 5.0 10.0 0.00 0.00 0.00 31 1016.5
20260506220258 64 317 4.0 12.0 0.00 0.00 0.00 34 1016.5
20260506215757 64 300 5.0 12.0 0.00 0.00 0.00 29 1016.5
20260506215257 65 309 4.0 10.0 0.00 0.00 0.00 30 1016.6
20260506214257 63 304 4.0 14.0 0.00 0.00 0.00 32 1016.7
20260506213755 63 316 5.0 14.0 0.00 0.00 0.00 33 1016.7
20260506213254 63 312 4.0 11.0 0.00 0.00 0.00 29 1016.8
20260506212755 64 305 4.0 11.0 0.00 0.00 0.00 32 1016.9
20260506212254 65 307 5.0 11.0 0.00 0.00 0.00 29 1016.8
20260506211253 64 348 6.0 14.0 0.00 0.00 0.00 31 1016.8
20260506210753 64 305 4.0 14.0 0.00 0.00 0.00 32 1017.0
20260506210251 63 297 6.0 14.0 0.00 0.00 0.00 30 1017.0
20260506205251 63 255 5.0 14.0 0.00 0.00 0.00 30 1017.2
20260506204749 63 295 3.0 14.0 0.00 0.00 0.00 29 1017.2
20260506204249 63 288 3.0 12.0 0.00 0.00 0.00 35 1017.1
20260506203748 62 319 3.0 12.0 0.00 0.00 0.00 35 1017.4
20260506203248 61 332 5.0 10.0 0.00 0.00 0.00 36 1017.4
20260506202749 61 239 6.0 14.0 0.00 0.00 0.00 31 1017.5
20260506202248 62 225 6.0 14.0 0.00 0.00 0.00 31 1017.5
20260506201747 63 301 8.0 14.0 0.00 0.00 0.00 30 1017.6
20260506201247 63 257 5.0 15.0 0.00 0.00 0.00 34 1017.6
20260506200746 62 261 9.0 15.0 0.00 0.00 0.00 32 1017.6
20260506200246 62 23 7.0 13.0 0.00 0.00 0.00 31 1017.7
20260506195746 61 265 5.0 12.0 0.00 0.00 0.00 37 1017.8
20260506195247 61 332 5.0 12.0 0.00 0.00 0.00 32 1017.8
20260506194746 61 282 5.0 17.0 0.00 0.00 0.00 35 1017.8
20260506194245 61 323 7.0 17.0 0.00 0.00 0.00 31 1017.9
20260506193745 62 282 5.0 15.0 0.00 0.00 0.00 33 1017.8
20260506193245 62 34 5.0 15.0 0.00 0.00 0.00 35 1017.8
20260506192746 62 347 5.0 15.0 0.00 0.00 0.00 35 1017.9
20260506191744 64 287 4.0 17.0 0.00 0.00 0.00 33 1017.9
20260506191244 63 323 5.0 12.0 0.00 0.00 0.00 38 1017.9
20260506190744 62 294 6.0 15.0 0.00 0.00 0.00 35 1017.9
20260506185742 62 300 4.0 12.0 0.00 0.00 0.00 37 1017.9
20260506185243 61 334 4.0 15.0 0.00 0.00 0.00 39 1018.1
20260506184742 61 265 4.0 17.0 0.00 0.00 0.00 35 1018.1
20260506184242 61 346 3.0 17.0 0.00 0.00 0.00 35 1018.1
20260506183742 62 336 5.0 15.0 0.00 0.00 0.00 33 1018.3
20260506182744 62 17 4.0 11.0 0.00 0.00 0.00 35 1018.3
20260506181742 61 309 6.0 13.0 0.00 0.00 0.00 37 1018.3
20260506181241 61 335 5.0 12.0 0.00 0.00 0.00 37 1018.4
20260506180742 60 316 4.0 11.0 0.00 0.00 0.00 37 1018.5
20260506180240 60 242 6.0 14.0 0.00 0.00 0.00 38 1018.5
20260506175239 60 309 5.0 14.0 0.00 0.00 0.00 37 1018.6
20260506174738 60 61 5.0 14.0 0.00 0.00 0.00 36 1018.7
20260506174238 60 304 7.0 14.0 0.00 0.00 0.00 37 1018.7
20260506173737 60 273 4.0 9.0 0.00 0.00 0.00 40 1018.9
20260506173238 60 332 4.0 11.0 0.00 0.00 0.00 39 1018.7
20260506172739 59 265 5.0 14.0 0.00 0.00 0.00 38 1018.8
20260506172237 59 319 9.0 14.0 0.00 0.00 0.00 40 1019.0
20260506171736 59 330 5.0 12.0 0.00 0.00 0.00 38 1019.1
20260506171236 59 287 6.0 13.0 0.00 0.00 0.00 39 1019.1
20260506170737 59 292 2.0 16.0 0.00 0.00 0.00 37 1019.2
20260506164735 59 342 4.0 13.0 0.00 0.00 0.00 40 1019.2
20260506164234 59 300 4.0 14.0 0.00 0.00 0.00 40 1019.2
20260506163734 58 302 6.0 15.0 0.00 0.00 0.00 39 1019.3
20260506163235 58 321 4.0 15.0 0.00 0.00 0.00 40 1019.2
20260506162735 58 22 5.0 14.0 0.00 0.00 0.00 38 1019.2
20260506162233 58 342 7.0 14.0 0.00 0.00 0.00 39 1019.2
20260506161733 58 269 6.0 14.0 0.00 0.00 0.00 39 1019.1
20260506161233 58 333 5.0 14.0 0.00 0.00 0.00 43 1019.2
20260506160732 58 238 5.0 10.0 0.00 0.00 0.00 41 1019.1
20260506160232 58 304 3.0 8.0 0.00 0.00 0.00 42 1019.1
20260506155731 57 317 3.0 12.0 0.00 0.00 0.00 43 1019.1
20260506155231 57 9 4.0 12.0 0.00 0.00 0.00 42 1019.1
20260506154231 57 9 4.0 9.0 0.00 0.00 0.00 47 1019.1
20260506153731 56 341 3.0 9.0 0.00 0.00 0.00 48 1019.1
20260506153231 56 316 3.0 9.0 0.00 0.00 0.00 47 1019.2
20260506152731 55 293 4.0 9.0 0.00 0.00 0.00 48 1019.2
20260506152230 55 307 3.0 7.0 0.00 0.00 0.00 46 1019.3
20260506151729 55 219 2.0 8.0 0.00 0.00 0.00 47 1019.2
20260506151229 55 272 3.0 11.0 0.00 0.00 0.00 46 1019.3
20260506150227 55 13 2.0 9.0 0.00 0.00 0.00 48 1019.2
20260506145727 55 296 2.0 8.0 0.00 0.00 0.00 51 1019.2
20260506145227 55 286 3.0 8.0 0.00 0.00 0.00 53 1019.3
20260506144228 53 341 2.0 9.0 0.00 0.00 0.00 50 1019.2
20260506143726 53 340 3.0 9.0 0.00 0.00 0.00 51 1019.4
20260506143227 53 229 2.0 8.0 0.00 0.00 0.00 47 1019.3
20260506142225 53 344 2.0 6.0 0.00 0.00 0.00 52 1019.3
20260506141725 52 304 3.0 6.0 0.00 0.00 0.00 51 1019.2
20260506140223 50 346 2.0 5.0 0.00 0.00 0.00 57 1019.1
20260506135723 49 275 2.0 4.0 0.00 0.00 0.00 61 1019.0
20260506135223 47 346 1.0 4.0 0.00 0.00 0.00 64 1019.0
20260506134723 46 20 1.0 4.0 0.00 0.00 0.00 66 1018.9
20260506134223 44 287 2.0 4.0 0.00 0.00 0.00 68 1018.9
20260506133721 43 250 2.0 4.0 0.00 0.00 0.00 72 1018.9
20260506133223 42 338 1.0 4.0 0.00 0.00 0.00 75 1018.9
20260506132722 40 221 2.0 4.0 0.00 0.00 0.00 78 1018.9
20260506132220 39 282 2.0 4.0 0.00 0.00 0.00 79 1018.8
20260506131720 38 300 1.0 5.0 0.00 0.00 0.00 79 1018.7
20260506131220 37 22 2.0 5.0 0.00 0.00 0.00 79 1018.7
20260506130720 36 319 2.0 4.0 0.00 0.00 0.00 80 1018.6
20260506125719 35 309 2.0 4.0 0.00 0.00 0.00 81 1018.7
20260506125218 35 309 2.0 4.0 0.00 0.00 0.00 81 1018.7
20260506124717 35 9 2.0 4.0 0.00 0.00 0.00 82 1018.7
20260506123719 34 339 2.0 4.0 0.00 0.00 0.00 82 1018.4
20260506123215 34 309 2.0 4.0 0.00 0.00 0.00 82 1018.5
20260506122714 34 319 1.0 2.0 0.00 0.00 0.00 82 1018.4
20260506122214 33 221 1.0 2.0 0.00 0.00 0.00 82 1018.2
20260506121715 33 17 1.0 2.0 0.00 0.00 0.00 81 1018.2
20260506121214 33 51 0.0 1.0 0.00 0.00 0.00 81 1018.0
20260506120714 33 178 0.0 1.0 0.00 0.00 0.00 81 1018.1
20260506120158 33 93 0.0 2.0 0.00 0.00 0.00 81 1017.9
20260506115658 33 9 0.0 2.0 0.00 0.00 0.00 80 1017.9
20260506115158 33 26 0.0 1.0 0.00 0.00 0.00 80 1017.7
20260506114657 33 9 0.0 1.0 0.00 0.00 0.00 80 1017.8
20260506114158 33 291 0.0 2.0 0.00 0.00 0.00 80 1017.7
20260506113656 33 221 1.0 2.0 0.00 0.00 0.00 79 1017.6
20260506113157 33 205 0.0 1.0 0.00 0.00 0.00 79 1017.5
20260506112656 33 51 0.0 1.0 0.00 0.00 0.00 78 1017.5
20260506112150 34 9 0.0 1.0 0.00 0.00 0.00 77 1017.5
20260506111150 34 51 0.0 1.0 0.00 0.00 0.00 77 1017.5
20260506110651 35 51 0.0 1.0 0.00 0.00 0.00 77 1017.5
20260506110145 35 119 0.0 1.0 0.00 0.00 0.00 76 1017.4
20260506105645 35 119 0.0 1.0 0.00 0.00 0.00 76 1017.4
20260506105145 35 178 0.0 1.0 0.00 0.00 0.00 75 1017.4
20260506104644 35 265 0.0 1.0 0.00 0.00 0.00 75 1017.4
20260506104144 36 162 0.0 1.0 0.00 0.00 0.00 74 1017.4
20260506103639 36 221 0.0 1.0 0.00 0.00 0.00 74 1017.3
20260506103140 36 111 0.0 0.0 0.00 0.00 0.00 73 1017.3
20260506102638 37 111 0.0 0.0 0.00 0.00 0.00 73 1017.3
20260506102138 37 111 0.0 1.0 0.00 0.00 0.00 73 1017.3
20260506101638 37 111 0.0 2.0 0.00 0.00 0.00 72 1017.2
20260506101138 37 111 1.0 2.0 0.00 0.00 0.00 72 1017.1
20260506100634 37 137 0.0 1.0 0.00 0.00 0.00 71 1017.1
20260506100133 38 137 1.0 1.0 0.00 0.00 0.00 71 1017.0
20260506095632 38 111 0.0 1.0 0.00 0.00 0.00 70 1017.0
20260506095132 38 146 0.0 1.0 0.00 0.00 0.00 70 1017.1
20260506094632 38 162 0.0 2.0 0.00 0.00 0.00 69 1017.0
20260506094131 38 119 0.0 3.0 0.00 0.00 0.00 68 1016.9
20260506093631 38 9 1.0 3.0 0.00 0.00 0.00 68 1017.1
20260506093132 39 334 1.0 3.0 0.00 0.00 0.00 68 1016.8
20260506092631 39 291 1.0 3.0 0.00 0.00 0.00 68 1016.9
20260506092130 39 61 2.0 3.0 0.00 0.00 0.00 68 1016.7
20260506091130 39 303 1.0 3.0 0.00 0.00 0.00 67 1016.8
20260506090629 40 341 1.0 2.0 0.00 0.00 0.00 67 1016.7
20260506090128 40 341 1.0 2.0 0.00 0.00 0.00 67 1016.6
20260506085628 40 309 1.0 3.0 0.00 0.00 0.00 67 1016.5
20260506085127 40 340 1.0 3.0 0.00 0.00 0.00 67 1016.5
20260506084626 40 338 1.0 2.0 0.00 0.00 0.00 67 1016.3
20260506083627 40 314 1.0 2.0 0.00 0.00 0.00 67 1016.2
20260506083126 40 341 1.0 3.0 0.00 0.00 0.00 66 1016.2
20260506082124 41 344 2.0 3.0 0.00 0.00 0.00 66 1016.2
20260506081624 41 319 1.0 2.0 0.00 0.00 0.00 65 1016.2
20260506081124 41 334 1.0 2.0 0.00 0.00 0.00 65 1016.3
20260506080624 41 9 1.0 3.0 0.00 0.00 0.00 65 1016.2
20260506080123 41 334 1.0 3.0 0.00 0.00 0.00 64 1016.2
20260506073122 41 26 1.0 2.0 0.00 0.00 0.00 63 1015.9
20260506072621 42 329 1.0 2.0 0.00 0.00 0.00 63 1016.0
20260506072122 42 9 1.0 1.0 0.00 0.00 0.00 63 1015.9
20260506071621 42 9 0.0 1.0 0.00 0.00 0.00 63 1015.8
20260506071121 42 309 0.0 1.0 0.00 0.00 0.00 63 1015.8
20260506070620 42 325 0.0 1.0 0.00 0.00 0.00 63 1015.8
20260506070121 42 9 0.0 1.0 0.00 0.00 0.00 63 1015.9
20260506062113 42 309 0.0 2.0 0.00 0.01 0.00 62 1015.8
20260506061613 42 291 1.0 2.0 0.00 0.01 0.00 62 1015.9
20260506061113 42 9 1.0 2.0 0.00 0.01 0.00 62 1015.9
20260506060613 42 309 0.0 2.0 0.00 0.01 0.00 62 1015.8
20260506060112 42 344 0.0 2.0 0.00 0.02 0.00 62 1015.7
20260506051110 44 22 0.0 2.0 0.00 0.02 0.00 58 1015.3
20260506050611 44 334 1.0 2.0 0.00 0.03 0.00 58 1015.4
20260506050111 44 9 1.0 2.0 0.00 0.03 0.00 58 1015.2
20260506045109 45 9 1.0 2.0 0.00 0.04 0.03 57 1015.2
20260506044609 45 338 1.0 2.0 0.00 0.04 0.03 57 1015.2
20260506044108 45 325 1.0 2.0 0.00 0.05 0.03 56 1015.1
20260506043608 45 309 1.0 2.0 0.00 0.06 0.03 55 1015.0
20260506043108 45 9 1.0 2.0 0.00 0.06 0.03 55 1015.0
20260506042608 46 309 1.0 2.0 0.00 0.06 0.03 55 1015.0
20260506042108 46 279 1.0 2.0 0.00 0.06 0.03 54 1014.8
20260506041606 46 334 1.0 3.0 0.00 0.06 0.03 53 1014.9
20260506041109 46 330 1.0 3.0 0.00 0.06 0.03 52 1014.8
20260506040606 46 325 1.0 3.0 0.00 0.06 0.03 52 1014.9
20260506040106 46 265 2.0 5.0 0.00 0.06 0.03 52 1014.8
20260506035606 47 30 2.0 5.0 0.00 0.06 0.03 51 1014.7
20260506035105 47 9 2.0 5.0 0.00 0.06 0.03 51 1014.9
20260506034605 47 309 2.0 5.0 0.00 0.06 0.03 51 1014.8
20260506034105 47 334 2.0 4.0 0.00 0.06 0.03 51 1014.8
20260506033105 47 9 2.0 8.0 0.00 0.06 0.03 50 1014.8
20260506032604 47 330 2.0 8.0 0.00 0.06 0.03 49 1014.6
20260506032103 48 16 2.0 5.0 0.00 0.06 0.03 49 1014.6
20260506031105 48 9 2.0 5.0 0.00 0.06 0.03 49 1014.4
20260506030602 48 9 3.0 7.0 0.00 0.06 0.03 48 1014.3
20260506030103 48 330 3.0 7.0 0.00 0.06 0.03 48 1014.2
20260506025603 48 339 3.0 5.0 0.00 0.06 0.03 48 1014.2
20260506025102 48 321 3.0 6.0 0.00 0.06 0.03 48 1014.1
20260506024601 49 338 2.0 6.0 0.00 0.06 0.03 47 1014.2
20260506023601 49 15 4.0 8.0 0.00 0.06 0.03 46 1014.1
20260506023100 49 41 3.0 7.0 0.00 0.06 0.03 45 1014.0
20260506022600 49 9 3.0 6.0 0.00 0.06 0.03 46 1014.0
20260506022100 49 346 4.0 6.0 0.00 0.06 0.03 45 1013.8
20260506021601 50 298 4.0 10.0 0.00 0.06 0.03 44 1013.8
20260506021059 50 9 5.0 10.0 0.00 0.06 0.03 44 1013.7
20260506020559 50 334 4.0 10.0 0.00 0.06 0.03 44 1013.6
20260506020058 50 325 4.0 10.0 0.00 0.06 0.03 44 1013.6
20260506015558 50 13 3.0 9.0 0.00 0.06 0.03 43 1013.6
20260506015057 50 29 3.0 9.0 0.00 0.06 0.03 43 1013.5
20260506014556 51 325 4.0 9.0 0.00 0.06 0.03 42 1013.4
20260506014056 51 32 4.0 11.0 0.00 0.06 0.03 43 1013.3
20260506013557 51 286 4.0 11.0 0.00 0.06 0.03 42 1013.1
20260506013056 51 24 5.0 10.0 0.00 0.06 0.03 42 1013.1
20260506012556 51 340 5.0 13.0 0.00 0.06 0.03 42 1013.1
20260506012056 51 328 6.0 13.0 0.00 0.06 0.03 41 1013.0
20260506011557 52 348 4.0 11.0 0.00 0.06 0.03 42 1012.9
20260506011054 52 341 5.0 12.0 0.00 0.06 0.03 42 1013.0
20260506010554 52 11 6.0 12.0 0.00 0.06 0.03 41 1012.9
20260506010054 52 346 5.0 14.0 0.00 0.06 0.03 40 1012.9
20260506005554 53 342 7.0 15.0 0.00 0.06 0.03 40 1012.9
20260506004553 53 327 9.0 15.0 0.00 0.06 0.03 40 1012.9
20260506004053 53 305 7.0 13.0 0.00 0.06 0.03 40 1012.7
20260506003553 53 342 5.0 15.0 0.00 0.06 0.03 41 1012.7
20260506003053 53 336 6.0 15.0 0.00 0.06 0.03 39 1012.6
20260506002552 53 18 8.0 16.0 0.00 0.06 0.03 39 1012.7
20260506002054 53 22 8.0 17.0 0.00 0.06 0.03 39 1012.6
20260506001550 53 325 11.0 17.0 0.00 0.06 0.03 39 1012.6
20260506001050 53 342 7.0 14.0 0.00 0.06 0.03 40 1012.5
20260506000550 54 13 5.0 14.0 0.00 0.06 0.03 40 1012.5
20260505235549 54 23 6.0 15.0 0.00 0.06 0.03 40 1012.6
20260505235049 54 18 8.0 15.0 0.00 0.06 0.03 40 1012.5
20260505234048 54 205 6.0 16.0 0.00 0.06 0.03 39 1012.4
20260505232044 55 30 10.0 14.0 0.00 0.06 0.03 38 1012.3
20260505231542 55 11 7.0 16.0 0.00 0.06 0.03 39 1012.3
20260505231041 55 13 9.0 19.0 0.00 0.06 0.03 39 1012.3
20260505230541 56 11 6.0 19.0 0.00 0.06 0.03 39 1012.2
20260505230040 56 347 7.0 18.0 0.00 0.06 0.03 39 1012.3
20260505225540 57 351 8.0 20.0 0.00 0.06 0.03 38 1012.2
20260505225040 58 303 10.0 20.0 0.00 0.06 0.03 38 1012.1
20260505224539 58 9 4.0 13.0 0.00 0.06 0.03 38 1012.1